Home   Weather   Hopedale   Past weeks

Flag for Canada Past Weather in Hopedale, Newfoundland and Labrador, Canada — Yesterday and Last 2 Weeks

Now
14 °F

Cold.


Feels Like: 14 °F
Forecast: 11 / 16 °F
Wind: 2 mph from North

Location: Hopedale

Current Time: Dec 7, 2016 at 2:23:01 pm

Latest Report: Dec 7, 2016 at 2:00 pm


Visibility: N/A

Pressure: 29.78 "Hg

Humidity: 73%

Dew Point: 6 °F

Location of HopedaleLocation

Past Weather in Hopedale — Graph

°F

Hopedale Temperature Yesterday

Maximum temperature yesterday: 17 °F (at 1:00 pm)
Minimum temperature yesterday: 12 °F (at 6:00 am)
Average temperature yesterday: 15 °F

High & Low Weather Summary for the Past Weeks

 TemperatureHumidityPressure
High32 °F (Nov 22, 4:00 pm)100% (Nov 22, 1:00 pm)30.37 "Hg (Nov 22, 1:00 pm)
Low11 °F (Dec 1, 7:00 pm)63% (Nov 27, 1:00 pm)29.40 "Hg (Nov 22, 1:00 pm)
Average20 °F84%30.08 "Hg
* Reported Nov 22 1:00 pm — Dec 7 1:00 pm, Hopedale, Weather by CustomWeather, © 2016

Note: Actual official high and low records may vary slightly from our data, if they occured in-between our weather recording intervals... More about our weather records

Advertising

Hopedale Weather History for the Previous 24 Hours

Scroll right to see more
 ConditionsComfort  
Time TempWeatherWind HumidityBarometerVisibility
1:00 pm
Wed, Dec 7
14 °FCold.1 mph72%29.79 "HgN/A
12:00 pm14 °FCold.2 mph64%29.80 "HgN/A
11:00 am14 °FCold.2 mph68%29.79 "HgN/A
10:00 am12 °FCold.2 mph70%29.78 "HgN/A
9:00 am13 °FCold.1 mph74%29.79 "HgN/A
8:00 am15 °FCold.1 mph69%29.78 "HgN/A
7:00 am13 °FCold.2 mph73%29.77 "HgN/A
6:00 am14 °FCold.2 mph75%29.76 "HgN/A
4:00 am13 °FCold.2 mph78%29.75 "HgN/A
3:00 am13 °FCold.2 mph78%29.77 "HgN/A
2:00 am13 °FCold.2 mph77%29.77 "HgN/A
1:00 am14 °FCold.2 mph80%29.76 "HgN/A
12:00 am14 °FCold.2 mph74%29.75 "HgN/A
11:00 pm
Tue, Dec 6
17 °FCold.2 mph68%29.75 "HgN/A
10:00 pm14 °FCold.2 mph75%29.77 "HgN/A
8:00 pm15 °FCold.2 mph74%29.76 "HgN/A
7:00 pm14 °FCold.1 mph75%29.76 "HgN/A
6:00 pm15 °FCold.1 mph74%29.76 "HgN/A
5:00 pm15 °FCold.2 mph74%29.77 "HgN/A
3:00 pm16 °FCold.2 mph69%29.76 "HgN/A
Weather by CustomWeather, © 2016

See weather overviewHow to use our weather pages